Flag for American Samoa Weather past 2 weeks in Pago Pago, American Samoa

Now
81 °F

Overcast.


Feels Like: 88 °F
Forecast: 80 / 85 °F
Wind: 5 mph from North

Location: Pago Pago / Int. Airp.

Current Time: Jan 29, 2015 at 5:37:05 AM

Latest Report: Jan 29, 2015 at 4:52 AM


Visibility: 10 mi

Pressure: 29.61 "Hg

Humidity: 88%

Dew point: 77 °F

Location of Pago PagoLocation

Historic Weather in Pago Pago — Graph

°F

Pago Pago temperature yesterday

Maximum temperature yesterday: 89 °F (at 1:53 PM)
Minimum temperature yesterday: 79 °F (at 8:50 PM)
Average temperature yesterday: 84 °F

Past Weeks' High & Low Weather Summary

 TemperatureHumidityPressure
High91 °F (Jan 16, 11:50 AM)100% (Jan 20, 11:57 AM)29.93 "Hg (Jan 20, 11:57 AM)
Low75 °F (Jan 20, 2:52 PM)62% (Jan 22, 1:52 PM)28.55 "Hg (Jan 23, 6:50 AM)
Average83 °F81%29.74 "Hg
* Reported Jan 14 3:50 AM — Jan 29 3:51 AM, Pago Pago, Weather by CustomWeather, © 2014

Note: Actual official high and low records may vary slightly from our data, if they occured in-between our weather recording intervals... More about our weather records

Advertising

Pago Pago weather history for previous 24 hours

 ConditionsComfort  
Time TempWeatherWind HumidityBarometerVisibility
3:51 AM
Jan 29
79 °FSprinkles. Overcast.5 mph93%29.60 "Hg5 mi
2:54 AM78 °FSprinkles. Overcast.No wind96%29.62 "Hg5 mi
1:50 AM79 °FSprinkles. Overcast.3 mph95%29.64 "Hg5 mi
12:50 AM79 °FRain showers. Overcast.7 mph93%29.67 "Hg1 mi
11:54 PM
Jan 28
81 °FOvercast.9 mph89%29.67 "Hg10 mi
10:50 PM79 °FOvercast.3 mph93%29.68 "Hg10 mi
9:50 PM81 °FOvercast.9 mph90%29.68 "Hg10 mi
8:50 PM79 °FSprinkles. Overcast.3 mph91%29.67 "Hg10 mi
7:51 PM81 °FSprinkles. Overcast.6 mph90%29.66 "Hg8 mi
6:56 PM79 °FSprinkles. Cloudy.No wind91%29.64 "Hg11 mi
5:53 PM81 °FSprinkles. Mostly cloudy.10 mph88%29.62 "Hg7 mi
4:52 PM87 °FScattered showers. Broken clouds.8 mph75%29.60 "Hg12 mi
3:52 PM88 °FBroken clouds.10 mph71%29.59 "Hg12 mi
2:50 PM88 °FBroken clouds.13 mph70%29.60 "Hg12 mi
1:53 PM89 °FBroken clouds.14 mph71%29.60 "Hg12 mi
12:50 PM86 °FBroken clouds.10 mph77%29.63 "Hg12 mi
10:50 AM88 °FBroken clouds.8 mph70%29.65 "Hg12 mi
9:53 AM88 °FBroken clouds.8 mph70%29.67 "Hg12 mi
8:50 AM87 °FBroken clouds.10 mph73%29.67 "Hg12 mi
7:53 AM84 °FBroken clouds.2 mph79%29.65 "Hg12 mi
6:53 AM83 °FBroken clouds.7 mph78%29.64 "Hg12 mi
5:52 AM82 °FPartly cloudy.No wind80%29.63 "Hg10 mi
Weather by CustomWeather, © 2014

See weather overviewHow to use our weather pages